SP1ZPL-13 Weather Reports


time (UTC)temp
F
wind
direction
speed
knots
gust
knots
rain 1hr
in
rain 24hr
in
rain mn
in
humidity
%
barometer
mb
20260504223028 54 0.0 0.0 0.00 0.00 0.00 81 1012.0
20260504222046 54 45 0.0 1.7 0.00 0.00 0.00 81 1011.7
20260504221023 55 45 0.9 2.6 0.00 0.00 0.00 79 1011.8
20260504220020 55 48 0.9 2.6 0.00 0.00 0.00 79 1011.9
20260504215038 55 45 0.9 2.6 0.00 0.00 0.00 79 1012.0
20260504214016 55 0.0 0.9 0.00 0.00 0.00 78 1011.9
20260504213028 55 0.0 0.9 0.00 0.00 0.00 77 1012.1
20260504212026 55 45 0.0 1.7 0.00 0.00 0.00 77 1012.2
20260504211024 56 19 0.0 1.7 0.00 0.00 0.00 77 1012.1
20260504210021 56 39 1.7 2.6 0.00 0.00 0.00 77 1012.1
20260504205018 56 51 1.7 3.5 0.00 0.00 0.00 76 1012.2
20260504204036 57 41 1.7 2.6 0.00 0.00 0.00 74 1012.2
20260504203029 57 9 0.9 2.6 0.00 0.00 0.00 73 1012.4
20260504202026 57 34 0.0 1.7 0.00 0.00 0.00 72 1012.3
20260504201023 58 23 0.0 1.7 0.00 0.00 0.00 71 1012.3
20260504200041 58 27 0.9 1.7 0.00 0.00 0.00 71 1012.2
20260504195020 58 21 1.7 3.5 0.00 0.00 0.00 70 1012.3
20260504194016 58 45 0.9 1.7 0.00 0.00 0.00 70 1012.2
20260504193049 59 50 0.9 3.5 0.00 0.00 0.00 70 1012.4
20260504192027 59 349 0.9 3.5 0.00 0.00 0.00 69 1012.3
20260504191024 60 95 0.9 3.5 0.00 0.00 0.00 69 1012.2
20260504190022 60 26 3.5 7.8 0.00 0.00 0.00 68 1012.2
20260504185039 61 226 1.7 6.1 0.00 0.00 0.00 67 1012.2
20260504184017 61 321 1.7 7.0 0.00 0.00 0.00 66 1012.0
20260504183029 62 16 2.6 6.1 0.00 0.00 0.00 65 1011.9
20260504182047 63 1 0.9 3.5 0.00 0.00 0.00 64 1011.8
20260504181024 63 298 0.9 3.5 0.00 0.00 0.00 63 1011.7
20260504180022 63 6 0.9 2.6 0.00 0.00 0.00 62 1011.6
20260504175019 64 66 0.0 1.7 0.00 0.00 0.00 60 1011.6
20260504174017 64 52 0.9 1.7 0.00 0.00 0.00 59 1011.5
20260504173029 64 16 0.9 3.5 0.00 0.00 0.00 59 1011.5
20260504172047 64 123 1.7 6.1 0.00 0.00 0.00 58 1011.4
20260504171024 65 338 1.7 4.3 0.00 0.00 0.00 57 1011.5
20260504151025 72 57 1.7 3.5 0.00 0.00 0.00 50 1011.1
20260504141025 72 13 3.5 7.8 0.00 0.00 0.00 46 1011.3
20260504081026 70 148 6.1 10.4 0.00 0.00 0.00 52 1011.0
20260504050025 61 74 1.7 4.3 0.00 0.00 0.00 64 1009.9
20260504045023 61 81 1.7 3.5 0.00 0.00 0.00 63 1009.9
20260504044020 61 94 0.9 3.5 0.00 0.00 0.00 63 1009.8
20260504043017 61 93 1.7 3.5 0.00 0.00 0.00 62 1009.9
20260504042030 61 121 2.6 4.3 0.00 0.00 0.00 61 1009.8
20260504041027 61 116 1.7 4.3 0.00 0.00 0.00 61 1009.9
20260504040025 61 96 1.7 3.5 0.00 0.00 0.00 60 1009.8
20260504035022 61 127 2.6 3.5 0.00 0.00 0.00 60 1009.9
20260504034020 61 110 2.6 4.3 0.00 0.00 0.00 60 1009.8
20260504033017 62 86 0.9 3.5 0.00 0.00 0.00 60 1009.6
20260504032015 62 96 1.7 3.5 0.00 0.00 0.00 59 1009.7
20260504031028 62 100 1.7 5.2 0.00 0.00 0.00 58 1009.7
20260504030025 62 141 2.6 5.2 0.00 0.00 0.00 56 1009.4
20260504025023 62 101 2.6 3.5 0.00 0.00 0.00 55 1009.5
20260504024020 62 104 1.7 3.5 0.00 0.00 0.00 54 1009.5
20260504023018 63 102 2.6 4.3 0.00 0.00 0.00 54 1009.4
20260504022015 63 136 2.6 3.5 0.00 0.00 0.00 53 1009.3
20260504021028 63 104 2.6 4.3 0.00 0.00 0.00 52 1009.3
20260504020045 64 128 2.6 6.1 0.00 0.00 0.00 48 1009.4
20260504015043 64 101 1.7 3.5 0.00 0.00 0.00 47 1009.2
20260504014040 64 151 1.7 3.5 0.00 0.00 0.00 46 1009.1
20260504013018 65 84 2.6 4.3 0.00 0.00 0.00 45 1009.1
20260504012015 65 117 2.6 7.0 0.00 0.00 0.00 44 1009.0
20260504011028 66 151 3.5 7.0 0.00 0.00 0.00 44 1009.0
20260504010026 66 160 3.5 6.1 0.00 0.00 0.00 43 1009.1
20260504005023 66 119 3.5 5.2 0.00 0.00 0.00 43 1009.0
20260504004021 67 180 4.3 7.0 0.00 0.00 0.00 42 1008.9
20260504003038 67 160 3.5 7.0 0.00 0.00 0.00 42 1008.8
20260504002036 67 126 4.3 7.0 0.00 0.00 0.00 43 1008.9
20260504001028 67 156 5.2 10.4 0.00 0.00 0.00 44 1008.9
20260504000026 67 157 5.2 9.6 0.00 0.00 0.00 43 1009.1
20260503235023 67 109 4.3 7.8 0.00 0.00 0.00 43 1009.0
20260503234021 68 126 4.3 8.7 0.00 0.00 0.00 42 1008.9
20260503233018 68 123 2.6 4.3 0.00 0.00 0.00 42 1009.1
20260503232016 68 158 4.3 7.0 0.00 0.00 0.00 41 1009.1
20260503231028 68 137 3.5 7.0 0.00 0.00 0.00 41 1009.1
20260503230046 68 86 2.6 4.3 0.00 0.00 0.00 41 1009.0
20260503225023 68 114 2.6 3.5 0.00 0.00 0.00 41 1009.2
20260503224021 68 136 2.6 4.3 0.00 0.00 0.00 41 1009.1